BEIDOU-2 IGSO-1

Last updated on Thu Oct 30 2025 00:02:48 GMT+0000 (Coordinated Universal Time)

1 36828U 10036A 25302.58510550 -.00000084 00000+0 00000+0 0 9999 2 36828 54.2773 165.0495 0050949 216.1370 334.0866 1.00289238 55782
UTC large
Height (km)
Speed (km/s)
/
Latitude / Longitude
Inclination (degrees)
Orbital Period (minutes)
Azimuth
Elevation
Range (km)
Doppler Factor

Next 0 passes for location: London (51.5072 / 0.1276)

Sorry there are no passes over London.